STARLINK-35321, 66074

Orbit data source: Space-Track

STARLINK-35321, 66074 is a payload satellite owned by SpaceX/Seattle (US) in LEO that was launched on Sun, 19 Oct 2025 UTC via an FALCON 9 launch vehicle from the Air Force Eastern Test Range (AFETR). Payload-class satellites include a variety of spacecraft equipped with specific instruments for various scientific and technological missions. These include communications satellites like Starlink; space stations such as the ISS; scientific satellites like the Hubble; Earth observation satellites from companies like Planet Labs, Umbra, and HawkEye 360; GPS; miniature CubeSats for education and research; and military/defense satellites.

Loading next visibility...
Identifier
66074, 2025-235S
Orbit
LEO
Country
Flag of USUS
Related business
Manufacturer
SpaceX/Seattle
Mission
Operational Commercial Communications
Bus & Motor
STARLINK V2MO, Unknown motor
Mass
575 kg wet, ~530 kg dry
Launch date (UTC)
2025-10-19 (8 months ago)
Launch vehicle
FALCON 9
Launch site
Air Force Eastern Test Range (AFETR)
Object type
Payload
Rocket body
Debris
Shape & HBR
Box + 2 Pan, 17.7 m
Radar Cross Section
36.964 m², Large (>1 m²)

Expand to show TLE details & history
Last TLE update: 15 hours ago

TLE from 15 hours ago
0 STARLINK-35321
1 66074U 25235S   26171.20600319  .00014994  00000-0  51713-3 0  9995
2 66074  53.1617 129.3424 0001372  88.6402 271.4756 15.30214022 38614
Epoch: 2026-06-20T04:56Z
TLE epoch observation values (Epoch: 2026-06-20T04:56:38.675Z)
Latitude
-0.00002°
Longitude
146.75728°
Altitude
476.049 km
Speed
7.629 km/s
True Right ascension
08h 37m 22s
True Declination
0° 00' 00"
Sunlit
Object was in daylight at epoch
Visualization orbit readout
Latitude
Unknown
Longitude
Unknown
Altitude
Unknown
Speed
Unknown
Apparent Right ascension
Unknown
Apparent Declination
Unknown
Sunlit
N/A
Visualization observer readout
Local Sidereal Time
07:18:45
Azimuth
Unknown
Elevation
Unknown
Doppler factor
Unknown
Orbital elements
Apogee altitude
476.37 km
Perigee altitude
474.489 km
Semi-major axis
6,853.566 km
Eccentricity
0.00014
Inclination
53.1617°
RAAN
129.3424°
Arg. of periapsis
88.6402°
True anomaly
271.45988°
Mean anomaly
271.4756°
Eccentric anomaly
271.46774°
Mean motion
3.82532 °/min
Orbital period
94.11 mins
BSTAR
0.00051713
Loading maneuver chart data...
Computing Atmospheric mass density...
Loading historical data...
Loading historical data...
Loading historical data...
Loading historical data...
Loading historical data...
Loading historical data...
Loading historical data...

Documentation

Showing up to 5 results
|